Location: Bidwell Hollow
(37.7387°N, 90.1707°W)
Time: 02:46:20
(UTC+00:00)

Tiros 1 despin weight - Pass Details

Date: 18 May 2026
Orbit: 554 x 591 km, 48.2° (Epoch: 6 June)

Event Time Altitude Azimuth Distance (km) Brightness Sun altitude
Rises 17:11:44 0° 288° (WNW) 2,727 ? 69.4°
Reaches altitude 10° 17:14:38 10° 267° (W) 1,828 ? 69.7°
Maximum altitude 17:17:16 16° 228° (SW) 1,460 ? 70.0°
Drops below altitude 10° 17:19:54 10° 188° (S) 1,824 ? 70.2°
Sets 17:22:49 0° 167° (SSE) 2,718 ? 70.4°
